Dewpoint
62 62 62 62 62 61 61 61 60 59 58 57 56 55 53 50 49 51 51 52 53 53 53 53 55 55 49 37 29 38 55 52 46 36 30 26 21 19 20 23 22 21 19 18 18 20 21
59 61 61 61 61 61 62 61 58 57 56 55 54 52 50 48 48 50 52 53 53 54 55 54 55 54 44 25 24 38 39 28 31 26 28 27 24 26 24 22 17 21 19 21 22 22 20
58 57 57 60 60 61 60 57 56 55 55 54 53 51 50 48 48 50 52 52 52 53 54 55 55 47 37 30 25 26 25 26 24 25 28 28 31 31 30 24 27 28 24 22 21 19 17
57 57 56 55 55 55 55 55 55 54 54 53 50 49 50 49 49 50 51 52 52 53 54 54 55 47 39 31 26 21 20 19 23 23 26 23 30 34 33 29 27 24 25 19 19 18 20
57 56 56 55 55 54 54 53 53 53 53 53 51 50 48 49 49 50 51 51 51 52 53 53 46 46 37 36 24 22 28 29 25 25 26 22 35 32 31 27 24 23 19 19 20 20 22
56 56 55 55 54 54 53 53 53 53 53 53 51 50 48 49 49 50 51 51 49 49 46 45 43 31 30 22 25 32 37 37 33 29 28 33 31 29 27 25 22 20 19 19 18 19 21
56 55 56 55 54 54 54 53 53 53 53 53 53 50 49 48 48 49 48 42 38 42 41 37 35 28 26 24 26 26 30 36 36 33 29 31 27 25 25 24 24 22 19 19 19 20 22
55 55 55 55 55 54 54 53 53 52 51 51 52 50 49 49 48 50 46 40 35 37 33 33 33 33 32 28 18 21 25 34 34 31 28 26 27 28 26 25 23 22 23 23 22 18 17
55 55 55 54 54 55 54 54 53 52 52 51 52 51 49 48 48 44 38 39 37 40 34 26 23 18 23 21 18 15 22 33 31 30 28 25 24 27 25 23 22 20 23 24 21 20 17
55 55 55 54 54 54 55 54 54 53 52 52 53 51 48 47 41 39 39 42 42 43 32 25 18 18 16 15 18 13 17 24 27 25 25 24 25 24 22 21 20 18 22 21 20 20 17
52 53 54 54 54 54 54 54 54 54 53 52 52 50 48 47 41 40 44 45 43 44 21 21 20 21 20 15 22 19 16 17 16 21 23 23 21 19 18 19 21 20 24 23 23 21 18
51 51 51 53 53 53 53 54 53 53 52 52 51 49 48 43 42 38 46 47 46 35 22 22 29 25 21 22 21 31 21 24 22 17 16 18 20 19 21 21 21 23 22 21 23 20 19
49 50 52 51 52 52 52 53 53 52 52 52 51 50 47 41 40 46 48 46 33 26 20 21 26 25 28 28 25 29 29 25 16 13 12 11 11 13 21 22 25 20 19 17 15 18 19
47 49 49 51 52 52 51 52 52 52 52 51 50 49 47 42 44 46 47 39 24 19 19 19 17 22 22 25 25 24 26 23 21 17 18 11 15 11 15 21 20 21 20 21 16 16 17
44 46 48 49 50 51 51 51 52 51 51 51 50 47 44 44 44 45 42 29 20 18 15 12 13 14 20 24 24 24 26 24 24 24 22 21 16 17 18 19 18 18 21 22 23 25 21
42 43 44 48 48 50 50 50 50 51 51 51 47 44 42 45 46 43 37 23 21 18 16 16 13 12 11 12 19 22 26 26 27 30 28 27 22 21 20 21 21 19 22 21 25 20 19
42 42 43 45 47 47 49 50 50 51 51 51 45 38 42 48 46 39 29 24 22 21 20 17 17 16 16 15 15 17 18 27 26 27 25 23 24 23 27 26 24 23 22 24 24 25 20
41 42 43 45 47 47 46 49 50 50 50 49 42 32 43 47 34 33 27 25 29 21 21 21 22 21 19 18 18 18 20 29 29 28 25 26 24 19 18 18 24 24 20 22 25 24 26
41 42 42 43 44 47 46 45 49 49 50 46 37 37 46 43 29 28 26 23 24 23 22 19 20 22 23 20 18 18 22 26 26 29 30 29 24 17 16 15 15 13 16 22 23 28 24
40 41 42 42 43 44 46 45 47 49 49 47 35 31 36 40 35 29 26 23 20 22 22 21 20 22 22 21 20 18 19 27 31 28 35 32 26 21 16 16 15 15 10 11 17 22 19
39 40 42 41 42 43 44 45 45 49 49 47 35 33 35 31 33 33 30 27 24 19 21 21 21 21 20 18 18 18 20 19 27 34 31 27 21 21 18 14 12 12 12 14 14 16 18
38 40 41 42 42 42 43 43 45 45 49 45 32 33 38 31 34 32 32 28 27 24 23 20 21 21 20 18 20 18 18 15 17 26 28 29 22 25 21 19 17 16 15 14 14 13 11
38 39 40 40 41 42 42 42 43 44 47 39 35 39 39 33 33 31 30 28 26 27 25 21 21 21 20 21 27 28 29 29 29 27 29 32 31 27 21 23 24 20 19 19 19 20 19
38 38 39 40 40 40 41 42 42 44 45 37 35 40 33 32 33 30 28 29 28 25 24 26 29 27 27 29 29 28 28 27 27 27 28 27 27 29 25 22 15 18 23 23 21 18 19
38 38 38 38 40 39 40 40 43 44 44 39 40 37 33 31 33 31 31 28 28 28 27 27 30 32 32 30 28 23 24 23 24 23 23 25 24 22 19 17 18 19 21 22 21 18 21
37 37 38 37 37 40 39 39 42 41 43 40 39 41 34 32 33 31 32 31 28 28 30 31 35 33 32 30 25 19 16 17 16 15 16 16 22 21 18 15 8 16 21 23 26 19 28
37 38 37 37 37 39 39 39 41 41 43 41 40 40 38 32 35 37 35 33 36 32 29 32 33 30 31 24 19 19 19 18 14 13 15 20 21 19 18 18 19 20 23 24 20 19 32
36 37 37 37 38 38 39 37 39 40 41 42 40 42 39 35 35 36 36 36 35 35 28 33 31 29 26 21 21 21 20 20 19 19 19 18 21 20 22 22 20 30 29 25 30 35 34
37 37 37 37 37 38 39 40 39 38 39 42 39 43 42 36 36 39 40 40 39 37 36 36 31 31 31 24 23 22 22 22 22 21 26 20 26 22 25 23 29 33 30 33 37 35 34
Lifted_Index
2 2 2 2 2 2 2 2 3 3 3 3 3 3 3 3 4 5 6 7 8 10 11 11 12 12 10 9 10 11 11 11 11 10 10 9 9 8 7 7 7 7 7 7 7 6 6
2 2 2 2 2 2 2 2 2 2 3 3 3 3 3 3 4 5 6 8 9 10 11 11 12 11 9 8 10 11 11 11 11 10 9 9 9 8 8 7 7 7 7 7 6 6 6
3 2 2 2 2 2 2 2 2 2 2 3 3 3 3 4 5 6 8 9 10 11 11 11 11 10 8 8 10 11 11 11 11 10 9 9 8 8 8 7 7 7 6 6 5 6 6
5 4 3 3 3 4 4 4 5 4 4 4 5 5 5 6 8 9 10 11 11 11 11 11 11 10 8 9 10 10 11 10 10 10 10 9 8 8 8 8 7 6 6 5 5 5 6
7 7 6 6 6 6 7 7 8 7 7 8 8 9 9 10 11 12 12 12 12 12 12 11 11 9 7 8 9 9 9 9 9 9 9 9 8 8 7 7 6 5 5 5 5 5 6
8 8 8 8 8 8 9 9 9 9 9 9 10 11 11 12 13 13 13 13 12 12 11 10 9 8 7 8 9 9 8 8 7 8 8 8 7 7 6 6 5 5 5 5 5 5 5
7 8 8 8 8 9 9 9 9 8 8 9 10 11 11 12 13 13 13 12 11 10 8 7 7 7 8 9 9 9 8 7 7 7 7 7 6 6 6 6 6 6 6 6 5 5 5
7 7 8 8 8 9 9 9 9 9 9 9 10 10 11 11 12 13 13 11 10 9 7 6 7 7 8 9 10 9 8 7 7 6 7 6 6 5 6 6 6 6 6 6 5 4 4
7 7 8 8 8 8 9 9 9 9 10 10 11 11 11 12 13 13 13 11 10 9 7 6 7 7 8 9 10 9 8 7 7 7 6 6 6 6 6 5 5 5 5 5 5 5 5
7 7 7 7 7 7 8 8 9 9 10 11 11 12 13 12 12 12 11 10 10 8 6 6 7 8 9 9 9 9 9 9 7 7 6 6 6 6 5 5 5 5 5 5 5 6 5
7 7 7 7 7 7 7 7 8 9 9 10 11 11 12 12 11 10 9 9 8 6 5 5 7 8 8 8 8 9 9 9 8 7 7 6 6 6 6 6 6 5 5 5 6 5 5
7 7 7 7 7 7 7 7 7 8 8 9 10 11 11 11 10 9 8 7 6 5 4 5 6 7 7 7 7 7 8 8 8 7 6 6 6 6 6 6 6 5 5 5 5 4 3
7 7 7 6 6 6 6 6 7 7 8 8 9 10 11 11 10 8 7 6 5 4 4 4 5 6 6 6 6 6 6 6 6 6 5 5 5 5 6 6 5 5 4 3 3 2 2
7 7 6 6 6 6 6 6 6 6 7 7 8 10 11 11 10 8 7 5 4 4 4 4 4 5 5 5 5 5 4 4 5 5 4 4 4 5 5 5 5 5 4 3 2 1 2
8 7 7 6 6 5 5 5 5 5 5 6 7 8 9 9 9 7 6 5 4 4 4 4 4 4 4 4 4 3 3 3 4 4 3 3 3 4 4 5 5 4 4 3 2 2 2
7 7 7 6 6 5 4 4 4 4 4 4 5 6 6 7 7 6 5 5 5 5 4 4 4 3 3 3 2 2 2 2 3 3 3 3 3 3 3 4 4 3 2 2 1 1 1
7 7 7 6 6 5 4 4 3 3 3 3 3 4 5 5 5 5 5 5 5 5 4 4 4 4 3 3 2 2 2 2 2 2 2 2 2 2 2 2 3 2 2 1 1 1 1
6 7 6 6 5 5 5 4 3 2 2 2 2 3 3 3 4 4 5 5 5 5 5 4 4 4 4 3 3 3 3 3 3 3 3 2 2 1 1 2 2 2 2 2 1 1 1
6 6 6 5 5 5 5 4 3 2 1 1 1 1 2 2 3 4 4 5 5 5 5 4 4 4 4 4 4 4 4 4 4 4 3 3 2 2 2 2 2 2 2 2 2 1 1
5 5 5 5 5 4 4 4 3 2 1 1 1 1 1 1 2 3 4 4 5 5 5 4 4 4 4 4 4 4 4 4 4 3 3 3 3 2 2 3 3 3 2 2 2 2 1
4 4 4 4 4 4 4 4 3 2 1 1 0 0 0 1 2 3 3 3 4 4 4 3 3 3 4 4 4 4 4 3 3 3 3 3 3 3 3 3 3 3 2 2 2 2 1
4 4 3 3 4 4 4 3 3 2 1 1 1 1 1 1 1 2 2 2 3 3 3 2 2 2 3 3 3 3 3 3 3 2 2 2 2 2 3 3 2 2 3 2 2 1 1
3 3 3 3 3 3 3 3 3 2 2 1 1 1 1 1 1 1 1 2 2 2 2 2 2 2 2 2 2 2 2 2 2 2 1 1 1 1 2 2 1 2 2 2 2 1 1
2 2 2 2 3 3 3 3 3 3 2 2 2 2 1 1 1 1 1 1 1 1 1 1 1 1 1 1 1 1 1 1 1 1 1 1 0 0 1 1 1 2 2 2 1 1 1
2 2 2 2 2 3 3 3 3 3 3 3 3 2 1 1 1 1 1 1 1 1 1 1 1 0 0 0 1 1 1 1 1 1 1 1 0 0 0 0 1 2 2 1 1 1 1
3 2 2 2 2 2 3 3 3 3 3 3 3 3 2 1 1 1 0 0 0 0 0 0 0 0 0 0 1 1 1 1 2 2 2 1 1 1 1 1 2 2 2 1 1 1 1
3 2 2 2 1 2 2 3 3 3 3 3 4 3 2 2 1 1 1 1 0 0 0 0 0 0 0 1 1 1 2 2 2 2 2 1 1 1 1 1 2 2 2 1 0 1 1
3 3 2 2 1 1 2 3 3 3 3 4 4 3 3 2 2 2 2 1 1 0 0 0 0 0 1 1 1 2 2 2 2 2 2 1 1 1 1 1 1 1 1 0 0 0 0
3 3 2 2 1 1 1 2 3 3 3 3 3 3 3 3 3 2 2 2 1 1 0 1 1 0 1 1 1 2 2 1 1 2 1 1 1 0 0 1 1 0 0 -0 0 0 0